Погода в Ивашково

Россия / Рязанская область     54°51′29″N   39°24′37″E
темп.,
°C
ветер,
м/с
пор.,
м/с
влажн.,
%
обл.,
%
осадки,
мм/ч
давл.,
гПа
погр.,
м
19 января, вт
вт1900:00−18св1196100 0.0 101921
03:00−18ссв1195100 0.0 101920
06:00−17ссв1298100 0.3 1018102
09:00−18ссз1197100 0.6 101920
12:00−16сз1193100 0.2 1019193
15:00−15сз2294100 0.4 1018242
18:00−16зсз2297100 0.3 101830
21:00−16зсз2396100 0.5 101880
20 января, ср
ср2000:00−16зсз2496100 0.2 101886
03:00−16зсз3596100 0.4 1019140
06:00−16зсз3596100 0.1 1019163
09:00−16зсз369699 0.3 1021149
12:00−14зсз359482 0.1 1021219
15:00−14з359578 0.1 1021174
18:00−17з339550 0.0 102336
21:00−18зюз349433 0.0 102440
21 января, чт
чт2100:00−19зюз34940 0.0 102447
03:00−19юз34880 0.0 102456
06:00−19ююз459140 0.0 102385
09:00−17ююз5118865 0.0 1022238
12:00−13ююз71383100 0.0 1020360
15:00−10ююз81493100 0.2 1017513
18:00−8юз71493100 0.5 1015616
21:00−6юз61495100 1.1 1014607
22 января, пт
пт2200:00−1зюз61494100 0.5 1012626
03:000зюз71390100 0.6 1012727
06:000зюз71493100 0.2 1011704
09:00+1зюз61392100 0.3 1012665
12:00+1зюз61297100 0.0 1012514
15:00+1юз61196100 0.0 1012439
18:00+1юз61193100 0.0 1012432
21:00+1юз61195100 0.0 1012481
23 января, сб
сб2300:000юз51194100 0.0 1013531
03:00+1юз61194100 0.0 1013515
06:00+1ююз41094100 0.0 1013514
09:00+1ююз41297100 0.0 1013509
12:00+1ююз511100100 0.0 1014452
15:00+1ю41099100 0.0 1013325
18:00+1ю41098100 0.0 1013337
21:00+1ю5999100 0.0 1013279